| time (UTC) | temp F | wind direction | speed MPH | gust MPH | rain 1hr in | rain 24hr in | rain mn in | humidity % | barometer mb |
| 20260831002927 | 98 | 292 | 3.0 | 7.0 | 0.00 | 0.00 | 0.00 | 28 | 1011.4 |
| 20260831002647 | 98 | 248 | 3.0 | 6.0 | 0.00 | 0.00 | 0.00 | 28 | 1011.5 |
| 20260831001928 | 98 | 259 | 4.0 | 9.0 | 0.00 | 0.00 | 0.00 | 28 | 1011.5 |
| 20260831001428 | 99 | 265 | 4.0 | 9.0 | 0.00 | 0.00 | 0.00 | 28 | 1011.6 |
| 20260831000927 | 99 | 256 | 3.0 | 7.0 | 0.00 | 0.00 | 0.00 | 28 | 1011.5 |
| 20260831000427 | 99 | 252 | 3.0 | 7.0 | 0.00 | 0.00 | 0.00 | 28 | 1011.5 |
| 20260830235927 | 99 | 250 | 4.0 | 11.0 | 0.00 | 0.00 | 0.00 | 27 | 1011.5 |
| 20260830235427 | 100 | 279 | 4.0 | 11.0 | 0.00 | 0.00 | 0.00 | 27 | 1011.5 |
| 20260830234928 | 100 | 227 | 3.0 | 9.0 | 0.00 | 0.00 | 0.00 | 27 | 1011.4 |
| 20260830234427 | 100 | 276 | 2.0 | 9.0 | 0.00 | 0.00 | 0.00 | 27 | 1011.4 |
| 20260830233929 | 101 | 250 | 1.0 | 4.0 | 0.00 | 0.00 | 0.00 | 27 | 1011.4 |
| 20260830233651 | 101 | 252 | 1.0 | 3.0 | 0.00 | 0.00 | 0.00 | 26 | 1011.4 |
| 20260830232923 | 100 | 245 | 2.0 | 5.0 | 0.00 | 0.00 | 0.00 | 26 | 1011.6 |
| 20260830232422 | 99 | 240 | 3.0 | 9.0 | 0.00 | 0.00 | 0.00 | 27 | 1011.6 |
| 20260830231919 | 99 | 220 | 4.0 | 9.0 | 0.00 | 0.00 | 0.00 | 28 | 1011.8 |
| 20260830231418 | 100 | 244 | 3.0 | 6.0 | 0.00 | 0.00 | 0.00 | 28 | 1011.9 |
| 20260830230917 | 100 | 259 | 4.0 | 11.0 | 0.00 | 0.00 | 0.00 | 28 | 1012.0 |
| 20260830230416 | 99 | 269 | 3.0 | 11.0 | 0.00 | 0.00 | 0.00 | 28 | 1012.0 |
| 20260830225916 | 99 | 252 | 2.0 | 6.0 | 0.00 | 0.00 | 0.00 | 29 | 1012.0 |
| 20260830225418 | 99 | 212 | 3.0 | 8.0 | 0.00 | 0.00 | 0.00 | 28 | 1012.2 |
| 20260830225141 | 98 | 242 | 2.0 | 8.0 | 0.00 | 0.00 | 0.00 | 29 | 1012.2 |
| 20260830224904 | 99 | 356 | 1.0 | 6.0 | 0.00 | 0.00 | 0.00 | 29 | 1012.3 |
| 20260830223913 | 100 | 270 | 3.0 | 8.0 | 0.00 | 0.00 | 0.00 | 28 | 1012.4 |
| 20260830223632 | 100 | 220 | 5.0 | 9.0 | 0.00 | 0.00 | 0.00 | 28 | 1012.5 |
| 20260830222911 | 100 | 217 | 4.0 | 9.0 | 0.00 | 0.00 | 0.00 | 28 | 1012.7 |
| 20260830222411 | 101 | 238 | 3.0 | 8.0 | 0.00 | 0.00 | 0.00 | 28 | 1012.7 |
| 20260830221912 | 100 | 216 | 3.0 | 7.0 | 0.00 | 0.00 | 0.00 | 29 | 1012.8 |
| 20260830221410 | 100 | 282 | 3.0 | 7.0 | 0.00 | 0.00 | 0.00 | 27 | 1012.8 |
| 20260830220911 | 100 | 281 | 2.0 | 7.0 | 0.00 | 0.00 | 0.00 | 27 | 1012.9 |
| 20260830220631 | 100 | 18 | 2.0 | 7.0 | 0.00 | 0.00 | 0.00 | 26 | 1013.1 |
| 20260830215915 | 101 | 245 | 2.0 | 6.0 | 0.00 | 0.00 | 0.00 | 26 | 1013.2 |
| 20260830215404 | 101 | 217 | 3.0 | 6.0 | 0.00 | 0.00 | 0.00 | 26 | 1013.2 |
| 20260830215337 | 101 | 212 | 2.0 | 5.0 | 0.00 | 0.00 | 0.00 | 26 | 1013.3 |
| 20260830214352 | 100 | 236 | 4.0 | 9.0 | 0.00 | 0.00 | 0.00 | 26 | 1013.4 |
| 20260830213843 | 98 | 314 | 6.0 | 11.0 | 0.00 | 0.00 | 0.00 | 26 | 1013.5 |
| 20260830213605 | 100 | 329 | 3.0 | 11.0 | 0.00 | 0.00 | 0.00 | 26 | 1013.5 |
| 20260830213047 | 101 | 282 | 2.0 | 5.0 | 0.00 | 0.00 | 0.00 | 26 | 1013.6 |
| 20260830212319 | 101 | 45 | 2.0 | 6.0 | 0.00 | 0.00 | 0.00 | 25 | 1013.7 |
| 20260830212040 | 102 | 252 | 1.0 | 6.0 | 0.00 | 0.00 | 0.00 | 25 | 1013.8 |
| 20260830211310 | 102 | 117 | 1.0 | 3.0 | 0.00 | 0.00 | 0.00 | 25 | 1013.9 |
| 20260830211017 | 101 | 285 | 1.0 | 3.0 | 0.00 | 0.00 | 0.00 | 26 | 1014.0 |
| 20260830210251 | 100 | 72 | 1.0 | 6.0 | 0.00 | 0.00 | 0.00 | 26 | 1014.1 |
| 20260830205747 | 99 | 129 | 2.0 | 6.0 | 0.00 | 0.00 | 0.00 | 27 | 1014.2 |
| 20260830205713 | 99 | 328 | 2.0 | 6.0 | 0.00 | 0.00 | 0.00 | 27 | 1014.4 |
| 20260830204731 | 100 | 295 | 2.0 | 7.0 | 0.00 | 0.00 | 0.00 | 26 | 1014.6 |
| 20260830204225 | 100 | 252 | 2.0 | 7.0 | 0.00 | 0.00 | 0.00 | 27 | 1014.6 |
| 20260830203715 | 100 | 203 | 3.0 | 7.0 | 0.00 | 0.00 | 0.00 | 27 | 1014.7 |
| 20260830203209 | 99 | 202 | 3.0 | 7.0 | 0.00 | 0.00 | 0.00 | 27 | 1014.8 |
| 20260830202703 | 99 | 230 | 3.0 | 10.0 | 0.00 | 0.00 | 0.00 | 27 | 1014.9 |
| 20260830202154 | 98 | 258 | 4.0 | 10.0 | 0.00 | 0.00 | 0.00 | 28 | 1015.0 |
| 20260830201648 | 99 | 243 | 4.0 | 9.0 | 0.00 | 0.00 | 0.00 | 27 | 1015.1 |
| 20260830201141 | 99 | 155 | 3.0 | 9.0 | 0.00 | 0.00 | 0.00 | 28 | 1015.0 |
| 20260830201108 | 100 | 171 | 1.0 | 6.0 | 0.00 | 0.00 | 0.00 | 28 | 1015.2 |
| 20260830200604 | 99 | 182 | 2.0 | 10.0 | 0.00 | 0.00 | 0.00 | 28 | 1015.3 |
| 20260830195625 | 99 | 124 | 3.0 | 10.0 | 0.00 | 0.00 | 0.00 | 28 | 1015.4 |
| 20260830195119 | 100 | 134 | 2.0 | 6.0 | 0.00 | 0.00 | 0.00 | 29 | 1015.4 |
| 20260830194617 | 99 | 229 | 1.0 | 5.0 | 0.00 | 0.00 | 0.00 | 29 | 1015.4 |
| 20260830194116 | 99 | 175 | 2.0 | 6.0 | 0.00 | 0.00 | 0.00 | 29 | 1015.7 |
| 20260830193617 | 98 | 219 | 4.0 | 8.0 | 0.00 | 0.00 | 0.00 | 30 | 1015.7 |
| 20260830193115 | 97 | 198 | 3.0 | 8.0 | 0.00 | 0.00 | 0.00 | 30 | 1015.8 |
| 20260830192833 | 97 | 222 | 2.0 | 7.0 | 0.00 | 0.00 | 0.00 | 31 | 1015.9 |
| 20260830192115 | 96 | 250 | 3.0 | 8.0 | 0.00 | 0.00 | 0.00 | 31 | 1016.0 |
| 20260830191616 | 96 | 243 | 4.0 | 8.0 | 0.00 | 0.00 | 0.00 | 31 | 1016.1 |
| 20260830191338 | 96 | 248 | 4.0 | 9.0 | 0.00 | 0.00 | 0.00 | 31 | 1016.2 |
| 20260830190614 | 97 | 217 | 4.0 | 9.0 | 0.00 | 0.00 | 0.00 | 31 | 1016.2 |
| 20260830190115 | 97 | 249 | 3.0 | 8.0 | 0.00 | 0.00 | 0.00 | 31 | 1016.3 |
| 20260830185615 | 96 | 256 | 3.0 | 8.0 | 0.00 | 0.00 | 0.00 | 31 | 1016.3 |
| 20260830185350 | 96 | 231 | 3.0 | 8.0 | 0.00 | 0.00 | 0.00 | 31 | 1016.3 |
| 20260830184610 | 97 | 212 | 2.0 | 8.0 | 0.00 | 0.00 | 0.00 | 30 | 1016.3 |
| 20260830184326 | 97 | 205 | 2.0 | 6.0 | 0.00 | 0.00 | 0.00 | 30 | 1016.4 |
| 20260830183829 | 96 | 182 | 2.0 | 7.0 | 0.00 | 0.00 | 0.00 | 32 | 1016.4 |
| 20260830183312 | 96 | 250 | 2.0 | 7.0 | 0.00 | 0.00 | 0.00 | 31 | 1016.5 |
| 20260830182546 | 95 | 157 | 2.0 | 6.0 | 0.00 | 0.00 | 0.00 | 33 | 1016.6 |
| 20260830182048 | 95 | 89 | 2.0 | 7.0 | 0.00 | 0.00 | 0.00 | 33 | 1016.7 |
| 20260830181547 | 95 | 216 | 2.0 | 7.0 | 0.00 | 0.00 | 0.00 | 33 | 1016.8 |
| 20260830181047 | 95 | 227 | 2.0 | 5.0 | 0.00 | 0.00 | 0.00 | 33 | 1016.8 |
| 20260830180547 | 94 | 229 | 2.0 | 6.0 | 0.00 | 0.00 | 0.00 | 35 | 1017.0 |
| 20260830180047 | 94 | 254 | 3.0 | 7.0 | 0.00 | 0.00 | 0.00 | 36 | 1017.1 |
| 20260830175547 | 93 | 150 | 3.0 | 9.0 | 0.00 | 0.00 | 0.00 | 37 | 1017.1 |
| 20260830175048 | 92 | 220 | 3.0 | 9.0 | 0.00 | 0.00 | 0.00 | 39 | 1017.1 |
| 20260830174547 | 92 | 172 | 3.0 | 7.0 | 0.00 | 0.00 | 0.00 | 38 | 1017.1 |
| 20260830174043 | 92 | 143 | 3.0 | 6.0 | 0.00 | 0.00 | 0.00 | 39 | 1017.2 |
| 20260830173812 | 91 | 233 | 4.0 | 9.0 | 0.00 | 0.00 | 0.00 | 41 | 1017.2 |
| 20260830173308 | 90 | 231 | 3.0 | 9.0 | 0.00 | 0.00 | 0.00 | 41 | 1017.2 |
| 20260830172543 | 90 | 213 | 3.0 | 7.0 | 0.00 | 0.00 | 0.00 | 41 | 1017.3 |
| 20260830172042 | 89 | 130 | 4.0 | 7.0 | 0.00 | 0.00 | 0.00 | 42 | 1017.3 |
| 20260830171543 | 89 | 231 | 4.0 | 9.0 | 0.00 | 0.00 | 0.00 | 41 | 1017.3 |
| 20260830171043 | 90 | 151 | 4.0 | 9.0 | 0.00 | 0.00 | 0.00 | 40 | 1017.3 |
| 20260830170543 | 91 | 211 | 4.0 | 9.0 | 0.00 | 0.00 | 0.00 | 41 | 1017.2 |
| 20260830170042 | 90 | 161 | 3.0 | 8.0 | 0.00 | 0.00 | 0.00 | 41 | 1017.3 |
| 20260830165544 | 91 | 218 | 2.0 | 7.0 | 0.00 | 0.00 | 0.00 | 40 | 1017.3 |
| 20260830165042 | 90 | 220 | 2.0 | 7.0 | 0.00 | 0.00 | 0.00 | 42 | 1017.3 |
| 20260830165036 | 89 | 146 | 3.0 | 7.0 | 0.00 | 0.00 | 0.00 | 42 | 1017.3 |
| 20260830164043 | 88 | 237 | 3.0 | 8.0 | 0.00 | 0.00 | 0.00 | 43 | 1017.3 |
| 20260830163543 | 88 | 179 | 3.0 | 8.0 | 0.00 | 0.00 | 0.00 | 42 | 1017.3 |
| 20260830163043 | 88 | 147 | 2.0 | 5.0 | 0.00 | 0.00 | 0.00 | 43 | 1017.4 |
| 20260830162544 | 88 | 154 | 3.0 | 7.0 | 0.00 | 0.00 | 0.00 | 42 | 1017.4 |
| 20260830162042 | 88 | 146 | 2.0 | 7.0 | 0.00 | 0.00 | 0.00 | 42 | 1017.4 |
| 20260830161543 | 89 | 120 | 1.0 | 4.0 | 0.00 | 0.00 | 0.00 | 41 | 1017.4 |
| 20260830161042 | 89 | 147 | 2.0 | 6.0 | 0.00 | 0.00 | 0.00 | 41 | 1017.5 |
| 20260830160543 | 88 | 221 | 2.0 | 6.0 | 0.00 | 0.00 | 0.00 | 42 | 1017.5 |
| 20260830160530 | 87 | 180 | 2.0 | 5.0 | 0.00 | 0.00 | 0.00 | 44 | 1017.5 |
| 20260830155545 | 87 | 127 | 2.0 | 5.0 | 0.00 | 0.00 | 0.00 | 44 | 1017.5 |
| 20260830155536 | 87 | 115 | 2.0 | 5.0 | 0.00 | 0.00 | 0.00 | 45 | 1017.5 |
| 20260830154544 | 86 | 155 | 2.0 | 4.0 | 0.00 | 0.00 | 0.00 | 45 | 1017.6 |
| 20260830154038 | 86 | 143 | 2.0 | 5.0 | 0.00 | 0.00 | 0.00 | 46 | 1017.5 |
| 20260830153532 | 86 | 169 | 3.0 | 6.0 | 0.00 | 0.00 | 0.00 | 46 | 1017.4 |
| 20260830153021 | 87 | 165 | 2.0 | 6.0 | 0.00 | 0.00 | 0.00 | 45 | 1017.5 |
| 20260830152515 | 87 | 146 | 2.0 | 6.0 | 0.00 | 0.00 | 0.00 | 45 | 1017.5 |
| 20260830152010 | 86 | 127 | 2.0 | 6.0 | 0.00 | 0.00 | 0.00 | 46 | 1017.4 |
| 20260830151459 | 85 | 190 | 2.0 | 4.0 | 0.00 | 0.00 | 0.00 | 49 | 1017.3 |
| 20260830151219 | 84 | 154 | 1.0 | 3.0 | 0.00 | 0.00 | 0.00 | 50 | 1017.4 |
| 20260830150448 | 84 | 133 | 0.0 | 2.0 | 0.00 | 0.00 | 0.00 | 52 | 1017.4 |
| 20260830145937 | 83 | 150 | 0.0 | 1.0 | 0.00 | 0.00 | 0.00 | 54 | 1017.4 |
| 20260830145432 | 82 | 150 | 0.0 | 1.0 | 0.00 | 0.00 | 0.00 | 54 | 1017.4 |
| 20260830144926 | 82 | 54 | 0.0 | 0.0 | 0.00 | 0.00 | 0.00 | 54 | 1017.4 |
| 20260830144416 | 82 | 4 | 0.0 | 0.0 | 0.00 | 0.00 | 0.00 | 54 | 1017.4 |
| 20260830143910 | 81 | 4 | 0.0 | 3.0 | 0.00 | 0.00 | 0.00 | 55 | 1017.4 |
| 20260830143405 | 81 | 4 | 0.0 | 3.0 | 0.00 | 0.00 | 0.00 | 54 | 1017.4 |
| 20260830142854 | 81 | 195 | 0.0 | 0.0 | 0.00 | 0.00 | 0.00 | 54 | 1017.4 |
| 20260830142347 | 81 | 195 | 0.0 | 0.0 | 0.00 | 0.00 | 0.00 | 55 | 1017.5 |
| 20260830142101 | 81 | 195 | 0.0 | 0.0 | 0.00 | 0.00 | 0.00 | 55 | 1017.5 |
| 20260830141332 | 81 | 195 | 0.0 | 0.0 | 0.00 | 0.00 | 0.00 | 55 | 1017.5 |
| 20260830140824 | 81 | 195 | 0.0 | 0.0 | 0.00 | 0.00 | 0.00 | 55 | 1017.5 |
| 20260830140546 | 80 | 194 | 0.0 | 0.0 | 0.00 | 0.00 | 0.00 | 55 | 1017.5 |
| 20260830135810 | 80 | 194 | 0.0 | 0.0 | 0.00 | 0.00 | 0.00 | 55 | 1017.5 |
| 20260830135306 | 80 | 194 | 0.0 | 0.0 | 0.00 | 0.02 | 0.00 | 54 | 1017.6 |
| 20260830134757 | 80 | 195 | 0.0 | 0.0 | 0.00 | 0.02 | 0.00 | 54 | 1017.6 |
| 20260830134248 | 80 | 195 | 0.0 | 0.0 | 0.00 | 0.02 | 0.00 | 54 | 1017.6 |
| 20260830133742 | 80 | 194 | 0.0 | 0.0 | 0.00 | 0.02 | 0.00 | 54 | 1017.5 |
| 20260830133236 | 80 | 195 | 0.0 | 0.0 | 0.00 | 0.02 | 0.00 | 54 | 1017.6 |
| 20260830132724 | 80 | 194 | 0.0 | 0.0 | 0.00 | 0.02 | 0.00 | 54 | 1017.6 |
| 20260830132219 | 81 | 195 | 0.0 | 0.0 | 0.00 | 0.02 | 0.00 | 53 | 1017.5 |
| 20260830131938 | 81 | 195 | 0.0 | 0.0 | 0.00 | 0.02 | 0.00 | 53 | 1017.4 |
| 20260830131204 | 81 | 195 | 0.0 | 0.0 | 0.00 | 0.02 | 0.00 | 52 | 1017.3 |
| 20260830130658 | 81 | 211 | 0.0 | 0.0 | 0.00 | 0.02 | 0.00 | 52 | 1017.4 |
| 20260830130152 | 81 | 211 | 1.0 | 4.0 | 0.00 | 0.02 | 0.00 | 52 | 1017.3 |
| 20260830125641 | 81 | 211 | 2.0 | 4.0 | 0.00 | 0.02 | 0.00 | 52 | 1017.2 |
| 20260830125359 | 82 | 164 | 2.0 | 5.0 | 0.00 | 0.02 | 0.00 | 52 | 1017.1 |
| 20260830124630 | 82 | 146 | 2.0 | 5.0 | 0.00 | 0.02 | 0.00 | 52 | 1017.1 |
| 20260830124118 | 82 | 131 | 1.0 | 6.0 | 0.00 | 0.02 | 0.00 | 52 | 1017.1 |
| 20260830123614 | 82 | 192 | 1.0 | 6.0 | 0.00 | 0.02 | 0.00 | 52 | 1017.1 |
| 20260830123107 | 82 | 132 | 1.0 | 7.0 | 0.00 | 0.02 | 0.00 | 52 | 1017.1 |
| 20260830122558 | 82 | 125 | 1.0 | 7.0 | 0.00 | 0.02 | 0.00 | 51 | 1017.1 |
| 20260830122051 | 82 | 174 | 2.0 | 8.0 | 0.00 | 0.02 | 0.00 | 51 | 1017.0 |
| 20260830121546 | 82 | 163 | 2.0 | 8.0 | 0.00 | 0.02 | 0.00 | 50 | 1017.0 |
| 20260830121036 | 82 | 189 | 2.0 | 5.0 | 0.00 | 0.02 | 0.00 | 50 | 1016.8 |
| 20260830120528 | 82 | 204 | 2.0 | 5.0 | 0.00 | 0.02 | 0.00 | 49 | 1016.7 |
| 20260830120024 | 82 | 165 | 3.0 | 9.0 | 0.00 | 0.02 | 0.00 | 49 | 1016.5 |
| 20260830115514 | 82 | 88 | 4.0 | 10.0 | 0.00 | 0.02 | 0.00 | 49 | 1016.3 |
| 20260830115229 | 82 | 186 | 4.0 | 10.0 | 0.00 | 0.02 | 0.00 | 49 | 1016.2 |
| 20260830114502 | 82 | 138 | 4.0 | 12.0 | 0.00 | 0.02 | 0.00 | 48 | 1016.1 |
| 20260830114213 | 83 | 168 | 4.0 | 12.0 | 0.00 | 0.02 | 0.00 | 48 | 1016.1 |
| 20260830113450 | 83 | 85 | 3.0 | 9.0 | 0.00 | 0.02 | 0.00 | 47 | 1016.1 |
| 20260830112948 | 83 | 115 | 2.0 | 7.0 | 0.00 | 0.02 | 0.00 | 46 | 1016.1 |
| 20260830112447 | 83 | 134 | 2.0 | 6.0 | 0.00 | 0.02 | 0.00 | 46 | 1016.2 |
| 20260830111946 | 83 | 150 | 2.0 | 7.0 | 0.00 | 0.02 | 0.00 | 45 | 1016.2 |
| 20260830111706 | 84 | 120 | 2.0 | 7.0 | 0.00 | 0.02 | 0.00 | 45 | 1016.3 |
| 20260830110946 | 84 | 96 | 2.0 | 6.0 | 0.00 | 0.02 | 0.00 | 45 | 1016.4 |
| 20260830110446 | 84 | 134 | 3.0 | 6.0 | 0.00 | 0.02 | 0.00 | 45 | 1016.4 |
| 20260830105945 | 84 | 121 | 2.0 | 5.0 | 0.00 | 0.02 | 0.00 | 44 | 1016.4 |
| 20260830105448 | 84 | 141 | 2.0 | 5.0 | 0.00 | 0.02 | 0.00 | 44 | 1016.3 |
| 20260830104944 | 84 | 172 | 3.0 | 10.0 | 0.00 | 0.02 | 0.00 | 44 | 1016.3 |
| 20260830104444 | 83 | 148 | 2.0 | 10.0 | 0.00 | 0.02 | 0.00 | 44 | 1016.3 |
| 20260830103944 | 83 | 164 | 0.0 | 8.0 | 0.00 | 0.02 | 0.00 | 45 | 1016.3 |
| 20260830103658 | 82 | 142 | 0.0 | 0.0 | 0.00 | 0.02 | 0.00 | 47 | 1016.3 |
| 20260830103429 | 82 | 142 | 0.0 | 0.0 | 0.00 | 0.02 | 0.00 | 46 | 1016.2 |
| 20260830102441 | 82 | 146 | 0.0 | 0.0 | 0.00 | 0.02 | 0.00 | 46 | 1016.3 |
| 20260830101935 | 83 | 224 | 0.0 | 0.0 | 0.00 | 0.02 | 0.00 | 46 | 1016.1 |
| 20260830101429 | 83 | 173 | 0.0 | 0.0 | 0.00 | 0.02 | 0.00 | 46 | 1016.1 |
| 20260830100924 | 83 | 173 | 0.0 | 0.0 | 0.00 | 0.02 | 0.00 | 45 | 1015.9 |
| 20260830100423 | 83 | 173 | 0.0 | 0.0 | 0.00 | 0.02 | 0.00 | 45 | 1015.7 |
| 20260830095920 | 83 | 173 | 0.0 | 1.0 | 0.00 | 0.02 | 0.00 | 44 | 1015.7 |
| 20260830095422 | 83 | 129 | 0.0 | 3.0 | 0.00 | 0.02 | 0.00 | 44 | 1015.7 |
| 20260830094916 | 84 | 146 | 0.0 | 3.0 | 0.00 | 0.02 | 0.00 | 44 | 1015.5 |
| 20260830094414 | 84 | 147 | 0.0 | 2.0 | 0.00 | 0.02 | 0.00 | 43 | 1015.5 |
| 20260830093915 | 84 | 170 | 0.0 | 3.0 | 0.00 | 0.02 | 0.00 | 43 | 1015.4 |
| 20260830093414 | 85 | 108 | 1.0 | 5.0 | 0.00 | 0.02 | 0.00 | 42 | 1015.5 |
| 20260830092913 | 85 | 111 | 3.0 | 7.0 | 0.00 | 0.02 | 0.00 | 41 | 1015.4 |
| 20260830092635 | 86 | 139 | 4.0 | 7.0 | 0.00 | 0.02 | 0.00 | 41 | 1015.5 |
| 20260830091912 | 86 | 68 | 4.0 | 7.0 | 0.00 | 0.02 | 0.00 | 41 | 1015.4 |
| 20260830091412 | 86 | 78 | 4.0 | 11.0 | 0.00 | 0.02 | 0.00 | 41 | 1015.4 |
| 20260830090913 | 85 | 143 | 4.0 | 11.0 | 0.00 | 0.02 | 0.00 | 41 | 1015.4 |
| 20260830090410 | 85 | 77 | 3.0 | 8.0 | 0.00 | 0.02 | 0.00 | 42 | 1015.3 |
| 20260830090401 | 85 | 42 | 3.0 | 8.0 | 0.00 | 0.02 | 0.00 | 42 | 1015.3 |
| 20260830085414 | 85 | 90 | 2.0 | 5.0 | 0.00 | 0.02 | 0.00 | 43 | 1015.2 |
| 20260830084912 | 84 | 150 | 3.0 | 7.0 | 0.00 | 0.02 | 0.00 | 44 | 1015.1 |
| 20260830084410 | 84 | 158 | 3.0 | 7.0 | 0.00 | 0.02 | 0.00 | 45 | 1015.1 |
| 20260830084131 | 84 | 110 | 3.0 | 6.0 | 0.00 | 0.02 | 0.00 | 45 | 1015.1 |
| 20260830083406 | 84 | 146 | 3.0 | 6.0 | 0.00 | 0.02 | 0.00 | 46 | 1015.1 |
| 20260830082906 | 84 | 107 | 3.0 | 7.0 | 0.00 | 0.02 | 0.00 | 46 | 1015.1 |
| 20260830082406 | 84 | 141 | 5.0 | 11.0 | 0.00 | 0.02 | 0.00 | 46 | 1015.1 |
| 20260830081904 | 84 | 67 | 5.0 | 11.0 | 0.00 | 0.02 | 0.00 | 46 | 1015.1 |
| 20260830081404 | 84 | 131 | 4.0 | 10.0 | 0.00 | 0.02 | 0.00 | 46 | 1015.0 |
| 20260830080905 | 84 | 61 | 5.0 | 9.0 | 0.00 | 0.02 | 0.00 | 46 | 1014.9 |
| 20260830080402 | 84 | 74 | 4.0 | 9.0 | 0.00 | 0.02 | 0.00 | 45 | 1014.8 |
| 20260830075902 | 84 | 72 | 5.0 | 14.0 | 0.00 | 0.02 | 0.00 | 45 | 1014.7 |
| 20260830075402 | 84 | 76 | 7.0 | 15.0 | 0.00 | 0.02 | 0.00 | 45 | 1014.5 |
| 20260830074903 | 84 | 66 | 8.0 | 16.0 | 0.00 | 0.02 | 0.00 | 45 | 1014.5 |
| 20260830074859 | 84 | 44 | 8.0 | 17.0 | 0.00 | 0.02 | 0.00 | 45 | 1014.4 |
| 20260830073903 | 84 | 79 | 8.0 | 17.0 | 0.00 | 0.02 | 0.00 | 45 | 1014.5 |
| 20260830073352 | 85 | 52 | 9.0 | 15.0 | 0.00 | 0.02 | 0.00 | 45 | 1014.4 |
| 20260830072847 | 85 | 66 | 8.0 | 15.0 | 0.00 | 0.02 | 0.00 | 45 | 1014.4 |
| 20260830072341 | 85 | 51 | 8.0 | 13.0 | 0.00 | 0.02 | 0.00 | 44 | 1014.5 |
| 20260830071835 | 85 | 87 | 7.0 | 13.0 | 0.00 | 0.02 | 0.00 | 44 | 1014.5 |
| 20260830071556 | 85 | 83 | 7.0 | 16.0 | 0.00 | 0.02 | 0.00 | 44 | 1014.4 |
| 20260830070836 | 85 | 72 | 7.0 | 16.0 | 0.00 | 0.02 | 0.00 | 43 | 1014.2 |
| 20260830070336 | 85 | 70 | 5.0 | 13.0 | 0.00 | 0.02 | 0.00 | 43 | 1014.2 |
| 20260830070315 | 85 | 66 | 4.0 | 9.0 | 0.00 | 0.02 | 0.02 | 43 | 1014.4 |
| 20260830065336 | 85 | 84 | 2.0 | 8.0 | 0.00 | 0.02 | 0.02 | 43 | 1014.6 |
| 20260830065108 | 85 | 72 | 2.0 | 8.0 | 0.00 | 0.02 | 0.02 | 44 | 1014.5 |
| 20260830064334 | 84 | 83 | 2.0 | 6.0 | 0.00 | 0.02 | 0.02 | 44 | 1014.5 |
| 20260830063834 | 84 | 72 | 3.0 | 6.0 | 0.00 | 0.02 | 0.02 | 45 | 1014.6 |
| 20260830063333 | 84 | 75 | 3.0 | 7.0 | 0.00 | 0.02 | 0.02 | 45 | 1014.6 |
| 20260830062829 | 84 | 78 | 2.0 | 7.0 | 0.00 | 0.02 | 0.02 | 45 | 1014.7 |
| 20260830062817 | 84 | 86 | 2.0 | 5.0 | 0.00 | 0.02 | 0.02 | 46 | 1014.7 |
| 20260830061829 | 84 | 85 | 2.0 | 7.0 | 0.00 | 0.02 | 0.02 | 46 | 1014.8 |
| 20260830061328 | 83 | 97 | 2.0 | 7.0 | 0.00 | 0.02 | 0.02 | 47 | 1014.9 |
| 20260830061049 | 83 | 96 | 2.0 | 6.0 | 0.00 | 0.02 | 0.02 | 47 | 1014.8 |
| 20260830060327 | 83 | 101 | 1.0 | 4.0 | 0.00 | 0.02 | 0.02 | 48 | 1014.8 |
| 20260830055829 | 83 | 137 | 2.0 | 4.0 | 0.00 | 0.02 | 0.02 | 48 | 1014.9 |
| 20260830055327 | 83 | 127 | 2.0 | 5.0 | 0.00 | 0.02 | 0.02 | 48 | 1014.9 |
| 20260830054828 | 83 | 148 | 2.0 | 5.0 | 0.00 | 0.02 | 0.02 | 48 | 1015.1 |
| 20260830054550 | 83 | 136 | 1.0 | 4.0 | 0.00 | 0.02 | 0.02 | 47 | 1015.3 |
| 20260830053829 | 84 | 165 | 2.0 | 6.0 | 0.00 | 0.02 | 0.02 | 47 | 1015.5 |
| 20260830053324 | 84 | 225 | 2.0 | 6.0 | 0.00 | 0.02 | 0.02 | 46 | 1015.7 |
| 20260830052823 | 85 | 211 | 0.0 | 3.0 | 0.00 | 0.02 | 0.02 | 44 | 1015.8 |
| 20260830052542 | 85 | 226 | 0.0 | 0.0 | 0.00 | 0.02 | 0.02 | 43 | 1016.0 |
| 20260830051823 | 85 | 226 | 0.0 | 0.0 | 0.00 | 0.02 | 0.02 | 42 | 1016.0 |
| 20260830051324 | 85 | 295 | 0.0 | 4.0 | 0.00 | 0.02 | 0.02 | 42 | 1016.1 |
| 20260830050825 | 85 | 323 | 1.0 | 4.0 | 0.00 | 0.02 | 0.02 | 42 | 1016.1 |
| 20260830050325 | 86 | 292 | 1.0 | 3.0 | 0.00 | 0.02 | 0.02 | 42 | 1016.0 |
| 20260830050041 | 86 | 259 | 1.0 | 4.0 | 0.00 | 0.02 | 0.02 | 42 | 1016.1 |
| 20260830045323 | 86 | 255 | 1.0 | 4.0 | 0.00 | 0.02 | 0.02 | 42 | 1016.2 |
| 20260830044825 | 86 | 250 | 2.0 | 5.0 | 0.00 | 0.02 | 0.02 | 42 | 1016.4 |
| 20260830044326 | 86 | 260 | 2.0 | 5.0 | 0.00 | 0.02 | 0.02 | 41 | 1016.4 |
| 20260830043827 | 86 | 263 | 1.0 | 3.0 | 0.00 | 0.02 | 0.02 | 42 | 1016.4 |
| 20260830043326 | 86 | 265 | 1.0 | 4.0 | 0.00 | 0.02 | 0.02 | 42 | 1016.4 |
| 20260830042827 | 86 | 270 | 1.0 | 4.0 | 0.00 | 0.02 | 0.02 | 42 | 1016.4 |
| 20260830042326 | 86 | 271 | 1.0 | 5.0 | 0.00 | 0.02 | 0.02 | 43 | 1016.3 |
| 20260830042048 | 86 | 274 | 2.0 | 7.0 | 0.00 | 0.02 | 0.02 | 43 | 1016.3 |
| 20260830041815 | 86 | 250 | 3.0 | 7.0 | 0.00 | 0.02 | 0.02 | 44 | 1016.4 |
| 20260830040823 | 86 | 243 | 3.0 | 7.0 | 0.00 | 0.02 | 0.02 | 44 | 1016.4 |
| 20260830040325 | 86 | 212 | 3.0 | 10.0 | 0.00 | 0.02 | 0.02 | 43 | 1016.5 |
| 20260830035823 | 87 | 231 | 4.0 | 10.0 | 0.00 | 0.02 | 0.02 | 43 | 1016.4 |
| 20260830035548 | 87 | 252 | 4.0 | 8.0 | 0.00 | 0.02 | 0.02 | 43 | 1016.4 |
| 20260830034818 | 87 | 273 | 2.0 | 6.0 | 0.00 | 0.02 | 0.02 | 43 | 1016.3 |
| 20260830034319 | 87 | 264 | 2.0 | 5.0 | 0.00 | 0.02 | 0.02 | 43 | 1016.1 |
| 20260830033815 | 87 | 239 | 2.0 | 5.0 | 0.00 | 0.02 | 0.02 | 43 | 1016.1 |
| 20260830033316 | 87 | 221 | 4.0 | 9.0 | 0.00 | 0.02 | 0.02 | 43 | 1016.0 |
| 20260830033049 | 87 | 254 | 6.0 | 14.0 | 0.00 | 0.02 | 0.02 | 42 | 1015.9 |
| 20260830032536 | 87 | 266 | 6.0 | 14.0 | 0.00 | 0.02 | 0.02 | 42 | 1015.8 |
| 20260830031809 | 87 | 248 | 2.0 | 11.0 | 0.00 | 0.02 | 0.02 | 43 | 1015.7 |
| 20260830031313 | 87 | 253 | 0.0 | 4.0 | 0.00 | 0.02 | 0.02 | 44 | 1015.3 |
| 20260830030813 | 87 | 224 | 0.0 | 1.0 | 0.00 | 0.02 | 0.02 | 44 | 1015.1 |
| 20260830030307 | 87 | 224 | 0.0 | 1.0 | 0.00 | 0.02 | 0.02 | 43 | 1014.9 |
| 20260830025806 | 87 | 224 | 0.0 | 3.0 | 0.00 | 0.02 | 0.02 | 43 | 1014.9 |
| 20260830025306 | 87 | 137 | 1.0 | 3.0 | 0.00 | 0.02 | 0.02 | 43 | 1014.8 |
| 20260830025022 | 87 | 223 | 1.0 | 4.0 | 0.00 | 0.02 | 0.02 | 43 | 1014.8 |
| 20260830024303 | 87 | 225 | 1.0 | 4.0 | 0.00 | 0.02 | 0.02 | 42 | 1014.7 |
| 20260830024035 | 87 | 252 | 1.0 | 5.0 | 0.00 | 0.02 | 0.02 | 43 | 1014.6 |
| 20260830023302 | 87 | 252 | 1.0 | 5.0 | 0.00 | 0.02 | 0.02 | 43 | 1014.5 |
| 20260830022806 | 87 | 136 | 1.0 | 5.0 | 0.00 | 0.02 | 0.02 | 43 | 1014.1 |
| 20260830022306 | 88 | 236 | 2.0 | 7.0 | 0.00 | 0.02 | 0.02 | 42 | 1014.1 |
| 20260830021759 | 88 | 141 | 3.0 | 7.0 | 0.00 | 0.02 | 0.02 | 41 | 1014.0 |
| 20260830021522 | 88 | 164 | 3.0 | 8.0 | 0.00 | 0.02 | 0.02 | 41 | 1013.9 |
| 20260830021013 | 88 | 136 | 4.0 | 10.0 | 0.00 | 0.02 | 0.02 | 41 | 1013.7 |
| 20260830020249 | 88 | 229 | 4.0 | 10.0 | 0.00 | 0.02 | 0.02 | 41 | 1013.7 |
| 20260830020000 | 88 | 147 | 4.0 | 10.0 | 0.00 | 0.02 | 0.02 | 41 | 1013.6 |
| 20260830015243 | 89 | 142 | 4.0 | 9.0 | 0.00 | 0.02 | 0.02 | 41 | 1013.6 |
| 20260830014743 | 89 | 155 | 4.0 | 10.0 | 0.00 | 0.02 | 0.02 | 40 | 1013.5 |
| 20260830014243 | 89 | 202 | 4.0 | 10.0 | 0.00 | 0.02 | 0.02 | 39 | 1013.4 |
| 20260830014009 | 89 | 231 | 3.0 | 10.0 | 0.00 | 0.02 | 0.02 | 39 | 1013.4 |
| 20260830013246 | 89 | 192 | 4.0 | 10.0 | 0.00 | 0.02 | 0.02 | 40 | 1013.3 |
| 20260830012741 | 89 | 135 | 4.0 | 9.0 | 0.00 | 0.02 | 0.02 | 40 | 1013.2 |
| 20260830012241 | 89 | 198 | 4.0 | 11.0 | 0.00 | 0.02 | 0.02 | 39 | 1013.3 |
| 20260830011740 | 89 | 169 | 5.0 | 11.0 | 0.00 | 0.02 | 0.02 | 39 | 1013.2 |
| 20260830011239 | 90 | 205 | 5.0 | 13.0 | 0.00 | 0.02 | 0.02 | 38 | 1013.2 |
| 20260830010739 | 90 | 173 | 6.0 | 13.0 | 0.00 | 0.02 | 0.02 | 37 | 1013.2 |
| 20260830010240 | 91 | 191 | 5.0 | 13.0 | 0.00 | 0.02 | 0.02 | 36 | 1013.4 |
| 20260830005739 | 92 | 244 | 5.0 | 13.0 | 0.00 | 0.02 | 0.02 | 37 | 1013.4 |
| 20260830005243 | 92 | 205 | 3.0 | 9.0 | 0.00 | 0.02 | 0.02 | 36 | 1013.3 |
| 20260830004736 | 93 | 153 | 2.0 | 9.0 | 0.00 | 0.02 | 0.02 | 35 | 1012.9 |
| 20260830004229 | 93 | 149 | 2.0 | 6.0 | 0.00 | 0.02 | 0.02 | 34 | 1012.7 |
| 20260830003718 | 93 | 107 | 3.0 | 6.0 | 0.00 | 0.02 | 0.02 | 33 | 1012.7 |
| 20260830003211 | 93 | 79 | 3.0 | 6.0 | 0.00 | 0.02 | 0.02 | 33 | 1012.7 |